Location: Joffre
(52.3362°N, 113.5373°W)
Time: 08:12:29
(UTC+00:00)

Envisat - Pass Details

Date: 06 December 2021
Orbit: 764 x 766 km, 98.2° (Epoch: 17 January)

Event Time Altitude Azimuth Distance (km) Brightness Sun altitude
Rises 12:35:59 0° 16° (NNE) 3,247 6.4 -25.1°
Reaches altitude 10° 12:38:19 10° 18° (NNE) 2,316 5.6 -24.7°
Maximum altitude 12:43:24 70° 103° (ESE) 817 3.2 -24.0°
Drops below altitude 10° 12:48:28 10° 187° (S) 2,298 5.5 -23.2°
Sets 12:50:46 0° 190° (S) 3,219 6.2 -22.9°
